Regional Weather Roundup
Issued by NWS

Home | Current Version | Previous Version | Graphics & Text | Print | Product List | Glossary On
Versions: 1 2 3 4 5 6 7 8 9 10 11 12 13 14 15 16 17 18 19 20 21 22 23 24 25 26 27 28 29 30 31 32 33 34 35 36 37 38 39 40 41 42 43 44 45 46 47 48 49 50
000
ASUS45 KBOU 242007
RWRCO

WEATHER ROUNDUP FOR COLORADO
NATIONAL WEATHER SERVICE DENVER/BOULDER CO
100 PM MST SAT JAN 24 2015

NOTE: "FAIR" INDICATES FEW OR NO CLOUDS BELOW 12000 FEET WITH NO
SIGNIFICANT WEATHER AND/OR OBSTRUCTIONS TO VISIBILITY.

COZ001>005-013-030-031-242100-
...NORTHWEST COLORADO...

CITY           SKY/WX    TMP DP  RH WIND       PRES   REMARKS
CRAIG          CLOUDY    23  13  65 S6        30.33F WCI  16
HAYDEN         CLOUDY    23   9  54 SE8       30.32F WCI  14
MEEKER         CLOUDY    24  12  60 SE3       30.33F
MOUNT WERNER   NOT AVBL
STEAMBOAT SPGS CLOUDY    19   8  61 CALM      30.32F
WALDEN         CLOUDY    30  14  51 S17       30.22F WCI  18
$$

COZ006>008-011-242100-
...WEST CENTRAL VALLEYS...

CITY           SKY/WX    TMP DP  RH WIND       PRES   REMARKS
GRAND JUNCTION CLOUDY    38  11  32 VRB5      30.35F
MONTROSE       CLOUDY    38  10  31 NE3       30.34F
EAGLE          MOSUNNY   23  10  58 CALM      30.38F
RIFLE          CLOUDY    31  11  43 E3        30.35F
DELTA          CLOUDY    37  11  34 E3        30.36F
NUCLA          CLOUDY    36  12  38 CALM      30.37F
$$

COZ017>023-064>068-242100-
...SOUTHWEST COLORADO...

CITY           SKY/WX    TMP DP  RH WIND       PRES   REMARKS
DURANGO        CLOUDY    35  18  49 W3        30.29F
CORTEZ         SUNNY     42  13  30 W12       30.31F
PAGOSA SPRINGS CLOUDY    35  14  42 S3        30.27F
TELLURIDE      CLOUDY    36   8  30 SW3       30.33F
WOLF CREEK PAS NOT AVBL
$$

COZ009-010-012-014-032>034-037-058>063-242100-
...CENTRAL COLORADO...

CITY           SKY/WX    TMP DP  RH WIND       PRES   REMARKS
ASPEN          CLOUDY    28  12  51 N6        30.29F WCI  22
BUENA VISTA    CLOUDY    36  10  34 SE8       30.16F
COPPER MTN     CLOUDY    28   5  37 W10G20    30.27F WCI  19
BERTHOUD PASS  FAIR      14   9  79 NW31G44   30.21S WCI  -7
COTTONWOOD PAS CLOUDY    39  -2  17 W7G16     30.19F
GUNNISON       CLOUDY     7 N/A N/A E6        30.41F WCI  -3
KREMMLING      CLOUDY    14   3  62 CALM      30.36F
LEADVILLE      CLOUDY    32   2  27 NW15G23   30.23F WCI  22
MONARCH PASS   CLOUDY    16   7  67 MISG      30.32F
SALIDA         CLOUDY    44   7  22 W14G20    30.24F
SUNLIGHT       CLOUDY    30  12  47 SW5       30.33F WCI  25
WILKERSON PASS CLOUDY    30   5  34 N15G24    30.23F WCI  19
$$

COZ069>075-242100-
...SAN LUIS VALLEY/SANGRE DE CRISTO MOUNTAINS...

CITY           SKY/WX    TMP DP  RH WIND       PRES   REMARKS
ALAMOSA        PTSUNNY   36  11  35 CALM      30.25F
LA VETA PASS   NOT AVBL
SAGUACHE       CLOUDY    21  10  63 SE8       30.27F WCI  12
$$

COZ035-036-038>040-242100-
...NORTHERN COLORADO FRONT RANGE...

CITY           SKY/WX    TMP DP  RH WIND       PRES   REMARKS
DENVER INTL AP CLOUDY    51  17  26 W12       29.98F
DMNS CITY PARK   N/A     53  12  19 NW10G20   29.98F
AURORA         PTSUNNY   49  13  23 W9        29.99F
FRONT RANGE AP NOT AVBL
ERIE MUNI ARPT CLOUDY    54  14  20 W14G22    29.98F
BOULDER MUN AP CLOUDY    54  16  22 W13       29.99F
CENTENNIAL     CLOUDY    51  11  20 W9        29.99F
BROOMFIELD     CLOUDY    54  16  22 W16       30.00F
FORT COLLINS   CLOUDY    43  21  42 CALM      29.99F
LONGMONT       CLOUDY    57  16  19 W8        29.99S
$$

COZ041-046-047-076>085-087-088-242100-
...PIKES PEAK/PALMER DIVIDE AND SOUTHERN FOOTHILLS...

CITY           SKY/WX    TMP DP  RH WIND       PRES   REMARKS
COLO. SPRINGS  CLOUDY    52  11  19 S6        30.01F
A. F. ACADEMY  CLOUDY    50   8  18 VRB6G20   30.01F
ELLICOTT       CLOUDY   N/A N/A N/A W7        30.00F
FALCON         CLOUDY    49  13  24 W9        30.04F
FORT CARSON    CLOUDY    49  23  35 CALM      29.99F
LIMON          CLOUDY    54  13  19 W10       29.97F
MONUMENT HILL  CLOUDY    45  19  36 W8        30.02F
TRINIDAD       PTSUNNY   48  26  42 S3        30.03F
$$

COZ042>045-048>051-090-091-242100-
...NORTHEAST COLORADO...

CITY           SKY/WX    TMP DP  RH WIND       PRES   REMARKS
GREELEY ARPT   CLOUDY    39  25  56 CALM      29.97F
AKRON          CLOUDY    41  27  57 W15       29.94F
BURLINGTON     PTSUNNY   54  31  41 W13       29.93F
WRAY           PTSUNNY   55  19  24 W18G24    29.91F
STERLING       CLOUDY    43  34  70 CALM      29.93F
HOLYOKE        PTSUNNY   54  23  30 W13G18    29.91F
FORT MORGAN    CLOUDY    46  26  46 W8        29.97F
$$

COZ086-089-092>099-242100-
...SOUTHEAST COLORADO...

CITY           SKY/WX    TMP DP  RH WIND       PRES   REMARKS
PUEBLO         PTSUNNY   56  23  27 W10       29.96F
LA JUNTA       PTSUNNY   54  24  31 W14       29.98F
LAMAR          PTSUNNY   50  30  46 W9        29.96F
SPRINGFIELD      N/A     53  24  32 W12       29.97F
$$



USA.gov is the U.S. government's official web portal to all federal, state and local government web resources and services.